TimeEDT,TemperatureF,Dew PointF,Humidity,Sea Level PressureIn,VisibilityMPH,Wind Direction,Wind SpeedMPH,Gust SpeedMPH,PrecipitationIn,Events,Conditions,WindDirDegrees,DateUTC
12:53 AM,84.9,75.0,72,30.05,10.0,Variable,5.8,-,N/A,,Partly Cloudy,0,2013-06-18 04:53:00
1:53 AM,84.9,75.0,72,30.03,10.0,ESE,6.9,-,N/A,,Partly Cloudy,110,2013-06-18 05:53:00
2:53 AM,84.9,75.0,72,30.03,10.0,East,6.9,-,N/A,,Scattered Clouds,100,2013-06-18 06:53:00
3:53 AM,84.0,75.0,74,30.02,10.0,East,4.6,-,N/A,,Partly Cloudy,90,2013-06-18 07:53:00
4:53 AM,84.0,73.0,69,30.01,10.0,East,6.9,-,N/A,,Clear,100,2013-06-18 08:53:00
5:53 AM,84.0,73.9,72,30.01,10.0,ESE,6.9,-,N/A,,Partly Cloudy,110,2013-06-18 09:53:00
6:53 AM,84.9,75.0,72,30.02,10.0,ESE,6.9,-,N/A,,Partly Cloudy,120,2013-06-18 10:53:00
7:53 AM,86.0,75.9,72,30.03,10.0,ESE,6.9,-,N/A,,Partly Cloudy,120,2013-06-18 11:53:00
8:53 AM,87.1,75.0,67,30.04,10.0,ESE,9.2,-,N/A,,Partly Cloudy,120,2013-06-18 12:53:00
9:53 AM,89.1,75.9,65,30.05,10.0,ESE,5.8,-,N/A,,Clear,110,2013-06-18 13:53:00
10:53 AM,90.0,75.0,61,30.06,10.0,SE,8.1,-,N/A,,Partly Cloudy,130,2013-06-18 14:53:00
11:53 AM,91.0,75.9,61,30.06,10.0,ESE,8.1,-,N/A,,Partly Cloudy,120,2013-06-18 15:53:00
12:53 PM,91.0,75.9,61,30.05,10.0,ESE,8.1,-,N/A,,Clear,120,2013-06-18 16:53:00
1:53 PM,91.9,77.0,62,30.05,10.0,ESE,6.9,-,N/A,,Clear,110,2013-06-18 17:53:00
2:53 PM,91.0,75.9,61,30.04,10.0,ESE,8.1,-,N/A,,Clear,120,2013-06-18 18:53:00
3:53 PM,91.0,75.0,59,30.02,10.0,Variable,5.8,-,N/A,,Clear,0,2013-06-18 19:53:00
4:53 PM,88.0,73.9,63,30.01,10.0,SE,4.6,-,N/A,,Partly Cloudy,130,2013-06-18 20:53:00
5:53 PM,90.0,75.0,61,29.99,10.0,ESE,6.9,-,N/A,,Clear,120,2013-06-18 21:53:00
6:53 PM,87.1,73.9,65,30.00,10.0,ESE,6.9,-,N/A,,Clear,110,2013-06-18 22:53:00
7:53 PM,86.0,75.0,70,30.01,10.0,SE,5.8,-,N/A,,Clear,130,2013-06-18 23:53:00
8:53 PM,86.0,75.9,72,30.02,10.0,SE,8.1,-,N/A,,Clear,140,2013-06-19 00:53:00
9:53 PM,84.9,75.0,72,30.03,10.0,SE,6.9,-,N/A,,Clear,130,2013-06-19 01:53:00
10:53 PM,86.0,75.9,72,30.04,10.0,SE,4.6,-,N/A,,Clear,140,2013-06-19 02:53:00
11:53 PM,86.0,75.0,70,30.02,10.0,SE,8.1,-,N/A,,Partly Cloudy,130,2013-06-19 03:53:00